Chatawa, MS

7:26 PM CDT on September 25, 2016 (GMT -0500)
McComb-Pike County-Lewis

Weather History for KMCB - April, 2012

Change the Weather History Date:

Thursday, April 19, 2012

  Actual Average Record
Temperature  
Mean Temperature 64 °F -  
Max Temperature 78 °F 78 °F 92 °F (1987)
Min Temperature 50 °F 55 °F 36 °F (1983)
Degree Days  
Heating Degree Days 2    
Growing Degree Days 14 (Base 50)    
Moisture  
Dew Point 52 °F    
Average Humidity 65    
Maximum Humidity 96    
Minimum Humidity 36    
Precipitation  
Precipitation 0.00 in - - ()
Sea Level Pressure  
Sea Level Pressure 29.96 in    
Wind  
Wind Speed 2 mph (NNW)    
Max Wind Speed 6 mph    
Max Gust Speed -    
Visibility 10 miles    
Events      
Averages and records for this station are not official NWS values.
T = Trace of Precipitation, MM = Missing Value Source: NWS Daily Summary

Daily Weather History Graph

Daily Weather History Graph

Search for Another Location

Airport or City:

Trip Planner

Search our weather history database for the weather conditions in past years. The results will help you decide how hot, cold, wet, or windy it might be!

Date:

Astronomy

Apr. 19, 2012 Rise Set
Actual Time 6:28 AM CDT 7:33 PM CDT
Civil Twilight 6:03 AM CDT 7:58 PM CDT
Nautical Twilight 5:34 AM CDT 8:28 PM CDT
Astronomical Twilight 5:03 AM CDT 8:58 PM CDT
Moon 5:18 AM CDT (4/19) 6:23 PM CDT (4/19)
Length of Visible Light 13h 54m
Length of Day
13h 04m
Waning Crescent, 2% of the Moon is Illuminated
Apr 19
Waning Crescent
Apr 21
New
Apr 29
First Quarter
May 5
Full
May 12
Last Quarter

Hourly Weather History & Observations

Time (CDT) Temp. Dew Point Humidity Pressure Visibility Wind Dir Wind Speed Gust Speed Precip Events Conditions
12:53 AM 59.0 °F 51.1 °F 75% 30.02 in 10.0 mi North 3.5 mph - N/A   Clear
1:53 AM 59.0 °F 51.1 °F 75% 30.01 in 10.0 mi North 5.8 mph - N/A   Clear
2:53 AM 57.9 °F 51.1 °F 78% 30.00 in 10.0 mi North 4.6 mph - N/A   Clear
3:53 AM 57.0 °F 51.1 °F 81% 30.00 in 10.0 mi North 4.6 mph - N/A   Clear
4:53 AM 55.9 °F 51.1 °F 84% 29.99 in 10.0 mi Calm Calm - N/A   Clear
5:53 AM 52.0 °F 50.0 °F 93% 30.00 in 10.0 mi Calm Calm - N/A   Clear
6:53 AM 50.0 °F 48.9 °F 96% 30.02 in 10.0 mi Calm Calm - N/A   Clear
7:53 AM 61.0 °F 52.0 °F 72% 30.02 in 10.0 mi Calm Calm - N/A   Clear
8:53 AM 64.9 °F 51.1 °F 61% 30.02 in 10.0 mi Calm Calm - N/A   Clear
9:53 AM 70.0 °F 53.1 °F 55% 30.01 in 10.0 mi Calm Calm - N/A   Clear
10:53 AM 72.0 °F 51.1 °F 48% 30.01 in 10.0 mi SSE 4.6 mph - N/A   Clear
11:53 AM 73.0 °F 48.9 °F 42% 30.01 in 10.0 mi Calm Calm - N/A   Clear
12:53 PM 75.0 °F 48.0 °F 38% 29.99 in 10.0 mi Variable 4.6 mph - N/A   Clear
1:53 PM 77.0 °F 48.9 °F 37% 29.96 in 10.0 mi Variable 4.6 mph - N/A   Clear
2:53 PM 77.0 °F 48.0 °F 36% 29.94 in 10.0 mi Calm Calm - N/A   Clear
3:53 PM 77.0 °F 48.0 °F 36% 29.91 in 10.0 mi WSW 3.5 mph - N/A   Clear
4:53 PM 77.0 °F 50.0 °F 39% 29.89 in 10.0 mi Calm Calm - N/A   Clear
5:53 PM 75.9 °F 51.1 °F 42% 29.88 in 10.0 mi SSW 3.5 mph - N/A   Clear
6:53 PM 73.0 °F 55.9 °F 55% 29.88 in 10.0 mi South 3.5 mph - N/A   Clear
7:53 PM 68.0 °F 57.9 °F 70% 29.88 in 10.0 mi Calm Calm - N/A   Clear
8:53 PM 63.0 °F 57.0 °F 81% 29.89 in 10.0 mi Calm Calm - N/A   Clear
9:53 PM 61.0 °F 57.0 °F 87% 29.89 in 6.0 mi Calm Calm - N/A   Clear
10:53 PM 59.0 °F 55.9 °F 90% 29.88 in 7.0 mi Calm Calm - N/A   Clear
11:53 PM 57.0 °F 55.0 °F 93% 29.88 in 5.0 mi Calm Calm - N/A   Clear